DECAYED

STARLINK-2310, 47865 (Decayed)

Orbit data source: Space-Track

STARLINK-2310, 47865 was a payload satellite owned by SpaceX/Seattle (US) in LEO that was launched on Sun, 14 Mar 2021 UTC via an FALCON 9 launch vehicle from the Air Force Eastern Test Range (AFETR). Payload-class satellites include a variety of spacecraft equipped with specific instruments for various scientific and technological missions. These include communications satellites like Starlink; space stations such as the ISS; scientific satellites like the Hubble; Earth observation satellites from companies like Planet Labs, Umbra, and HawkEye 360; GPS; miniature CubeSats for education and research; and military/defense satellites.

Not visible in the next 10 days
Identifier
47865, 2021-021F
Orbit
Decayed
Country
Flag of USUS
Related business
Manufacturer
SpaceX/Seattle
Mission
Decayed Commercial Communications
Bus & Motor
STARLINK, Unknown motor
Mass
260 kg wet, ~248 kg dry
Launch date (UTC)
2021-03-14 (5 years ago)
Launch vehicle
FALCON 9
Launch site
Air Force Eastern Test Range (AFETR)
Object type
Payload
Rocket body
Debris
Shape & HBR
Box + 1 Pan, 10.1 m
Radar Cross Section
13.562 m², Large (>1 m²)

Expand to show TLE details & history
Last TLE update: 1 year ago

TLE from 1 year ago
0 STARLINK-2310
1 47865U 21021F   25062.54232787  .14327845  12464-4  80584-3 0  9992
2 47865  53.0195  90.6950 0002655  13.0028 125.3504 16.42070328220430
Epoch: 2025-03-03T13:00Z
TLE epoch observation values (Epoch: 2025-03-03T13:00:57.127Z)
Latitude
32.15297°
Longitude
-114.17575°
Altitude
163.349 km
Speed
7.812 km/s
True Right ascension
16h 10m 29s
True Declination
31° 59' 03"
Sunlit
Object was in full shadow at epoch
Visualization orbit readout
Latitude
Unknown
Longitude
Unknown
Altitude
Unknown
Speed
Unknown
Apparent Right ascension
Unknown
Apparent Declination
Unknown
Sunlit
N/A
Visualization observer readout
Local Sidereal Time
21:27:56
Azimuth
Unknown
Elevation
Unknown
Doppler factor
Unknown
Orbital elements
Apogee altitude
162.329 km
Perigee altitude
158.857 km
Semi-major axis
6,538.73 km
Eccentricity
0.00027
Inclination
53.0195°
RAAN
90.695°
Arg. of periapsis
13.0028°
True anomaly
125.37521°
Mean anomaly
125.3504°
Eccentric anomaly
125.36281°
Mean motion
4.1049 °/min
Orbital period
87.7 mins
BSTAR
0.00080584
Loading maneuver chart data...
Computing Atmospheric mass density...

Documentation

Showing up to 5 results
|